Year,Month,Day,Hour,Minute,Value (Times are PST for temperature in C)
2016,04,17,00,00,9.30
2016,04,17,00,01,9.30
2016,04,17,00,02,9.30
2016,04,17,00,03,9.30
2016,04,17,00,04,9.20
2016,04,17,00,05,9.20
2016,04,17,00,06,9.20
2016,04,17,00,07,9.20
2016,04,17,00,08,9.30
2016,04,17,00,09,9.30
2016,04,17,00,10,9.30
2016,04,17,00,11,9.30
2016,04,17,00,12,9.30
2016,04,17,00,13,9.30
2016,04,17,00,14,9.30
2016,04,17,00,15,9.30
2016,04,17,00,16,9.30
2016,04,17,00,17,9.30
2016,04,17,00,18,9.30
2016,04,17,00,19,9.30
2016,04,17,00,20,9.30
2016,04,17,00,21,9.30
2016,04,17,00,22,9.30
2016,04,17,00,23,9.30
2016,04,17,00,24,9.30
2016,04,17,00,25,9.30
2016,04,17,00,26,9.30
2016,04,17,00,27,9.30
2016,04,17,00,28,9.30
2016,04,17,00,29,9.30
2016,04,17,00,30,9.30
2016,04,17,00,31,9.30
2016,04,17,00,32,9.30
2016,04,17,00,33,9.30
2016,04,17,00,34,9.30
2016,04,17,00,35,9.30
2016,04,17,00,36,9.30
2016,04,17,00,37,9.20
2016,04,17,00,38,9.20
2016,04,17,00,39,9.20
2016,04,17,00,40,9.20
2016,04,17,00,41,9.20
2016,04,17,00,42,9.20
2016,04,17,00,43,9.20
2016,04,17,00,44,9.20
2016,04,17,00,45,9.20
2016,04,17,00,46,9.20
2016,04,17,00,47,9.20
2016,04,17,00,48,9.20
2016,04,17,00,49,9.20
2016,04,17,00,50,9.10
2016,04,17,00,51,9.10
2016,04,17,00,52,9.10
2016,04,17,00,53,9.10
2016,04,17,00,54,9.00
2016,04,17,00,55,9.00
2016,04,17,00,56,9.00
2016,04,17,00,57,9.00
2016,04,17,00,58,9.00
2016,04,17,00,59,9.00
2016,04,17,01,00,8.90
2016,04,17,01,01,8.90
2016,04,17,01,02,8.90
2016,04,17,01,03,8.90
2016,04,17,01,04,8.90
2016,04,17,01,05,8.90
2016,04,17,01,06,8.90
2016,04,17,01,07,9.00
2016,04,17,01,08,9.00
2016,04,17,01,09,9.00
2016,04,17,01,10,9.00
2016,04,17,01,11,9.00
2016,04,17,01,12,8.90
2016,04,17,01,13,8.90
2016,04,17,01,14,9.00
2016,04,17,01,15,9.00
2016,04,17,01,16,9.00
2016,04,17,01,17,8.90
2016,04,17,01,18,8.90
2016,04,17,01,19,8.90
2016,04,17,01,20,9.00
2016,04,17,01,21,8.90
2016,04,17,01,22,8.90
2016,04,17,01,23,8.90
2016,04,17,01,24,8.90
2016,04,17,01,25,8.90
2016,04,17,01,26,8.90
2016,04,17,01,27,8.90
2016,04,17,01,28,8.90
2016,04,17,01,29,8.90
2016,04,17,01,30,8.90
2016,04,17,01,31,8.90
2016,04,17,01,32,8.90
2016,04,17,01,33,8.80
2016,04,17,01,34,8.80
2016,04,17,01,35,8.80
2016,04,17,01,36,8.80
2016,04,17,01,37,8.80
2016,04,17,01,38,8.80
2016,04,17,01,39,8.80
2016,04,17,01,40,8.80
2016,04,17,01,41,8.80
2016,04,17,01,42,8.80
2016,04,17,01,43,8.70
2016,04,17,01,44,8.70
2016,04,17,01,45,8.70
2016,04,17,01,46,8.70
2016,04,17,01,47,8.60
2016,04,17,01,48,8.60
2016,04,17,01,49,8.60
2016,04,17,01,50,8.60
2016,04,17,01,51,8.60
2016,04,17,01,52,8.50
2016,04,17,01,53,8.50
2016,04,17,01,54,8.50
2016,04,17,01,55,8.50
2016,04,17,01,56,8.50
2016,04,17,01,57,8.50
2016,04,17,01,58,8.40
2016,04,17,01,59,8.40
2016,04,17,02,00,8.40
2016,04,17,02,01,8.40
2016,04,17,02,02,8.40
2016,04,17,02,03,8.40
2016,04,17,02,04,8.50
2016,04,17,02,05,8.40
2016,04,17,02,06,8.40
2016,04,17,02,07,8.40
2016,04,17,02,08,8.40
2016,04,17,02,09,8.40
2016,04,17,02,10,8.40
2016,04,17,02,11,8.40
2016,04,17,02,12,8.40
2016,04,17,02,13,8.40
2016,04,17,02,14,8.30
2016,04,17,02,15,8.30
2016,04,17,02,16,8.30
2016,04,17,02,17,8.30
2016,04,17,02,18,8.30
2016,04,17,02,19,8.30
2016,04,17,02,20,8.30
2016,04,17,02,21,8.30
2016,04,17,02,22,8.30
2016,04,17,02,23,8.30
2016,04,17,02,24,8.30
2016,04,17,02,25,8.30
2016,04,17,02,26,8.30
2016,04,17,02,27,8.30
2016,04,17,02,28,8.30
2016,04,17,02,29,8.30
2016,04,17,02,30,8.30
2016,04,17,02,31,8.20
2016,04,17,02,32,8.20
2016,04,17,02,33,8.20
2016,04,17,02,34,8.20
2016,04,17,02,35,8.30
2016,04,17,02,36,8.30
2016,04,17,02,37,8.20
2016,04,17,02,38,8.20
2016,04,17,02,39,8.20
2016,04,17,02,40,8.20
2016,04,17,02,41,8.20
2016,04,17,02,42,8.20
2016,04,17,02,43,8.30
2016,04,17,02,44,8.30
2016,04,17,02,45,8.30
2016,04,17,02,46,8.30
2016,04,17,02,47,8.30
2016,04,17,02,48,8.30
2016,04,17,02,49,8.30
2016,04,17,02,50,8.30
2016,04,17,02,51,8.30
2016,04,17,02,52,8.30
2016,04,17,02,53,8.30
2016,04,17,02,54,8.30
2016,04,17,02,55,8.30
2016,04,17,02,56,8.20
2016,04,17,02,57,8.20
2016,04,17,02,58,8.20
2016,04,17,02,59,8.20
2016,04,17,03,00,8.20
2016,04,17,03,01,8.20
2016,04,17,03,02,8.20
2016,04,17,03,03,8.20
2016,04,17,03,04,8.20
2016,04,17,03,05,8.10
2016,04,17,03,06,8.10
2016,04,17,03,07,8.10
2016,04,17,03,08,8.10
2016,04,17,03,09,8.10
2016,04,17,03,10,8.10
2016,04,17,03,11,8.00
2016,04,17,03,12,7.90
2016,04,17,03,13,7.90
2016,04,17,03,14,7.90
2016,04,17,03,15,7.80
2016,04,17,03,16,7.80
2016,04,17,03,17,7.80
2016,04,17,03,18,7.80
2016,04,17,03,19,7.80
2016,04,17,03,20,7.80
2016,04,17,03,21,7.80
2016,04,17,03,22,7.80
2016,04,17,03,23,7.80
2016,04,17,03,24,7.80
2016,04,17,03,25,7.80
2016,04,17,03,26,7.80
2016,04,17,03,27,7.80
2016,04,17,03,28,7.80
2016,04,17,03,29,7.80
2016,04,17,03,30,7.80
2016,04,17,03,31,7.80
2016,04,17,03,32,7.80
2016,04,17,03,33,7.80
2016,04,17,03,34,7.80
2016,04,17,03,35,7.80
2016,04,17,03,36,7.80
2016,04,17,03,37,7.80
2016,04,17,03,38,7.80
2016,04,17,03,39,7.80
2016,04,17,03,40,7.80
2016,04,17,03,41,7.70
2016,04,17,03,42,7.70
2016,04,17,03,43,7.70
2016,04,17,03,44,7.70
2016,04,17,03,45,7.70
2016,04,17,03,46,7.70
2016,04,17,03,47,7.70
2016,04,17,03,48,7.70
2016,04,17,03,49,7.70
2016,04,17,03,50,7.70
2016,04,17,03,51,7.70
2016,04,17,03,52,7.60
2016,04,17,03,53,7.60
2016,04,17,03,54,7.60
2016,04,17,03,55,7.60
2016,04,17,03,56,7.60
2016,04,17,03,57,7.60
2016,04,17,03,58,7.60
2016,04,17,03,59,7.60
2016,04,17,04,00,7.60
2016,04,17,04,01,7.60
2016,04,17,04,02,7.60
2016,04,17,04,03,7.60
2016,04,17,04,04,7.60
2016,04,17,04,05,7.60
2016,04,17,04,06,7.60
2016,04,17,04,07,7.60
2016,04,17,04,08,7.60
2016,04,17,04,09,7.60
2016,04,17,04,10,7.60
2016,04,17,04,11,7.60
2016,04,17,04,12,7.60
2016,04,17,04,13,7.60
2016,04,17,04,14,7.60
2016,04,17,04,15,7.70
2016,04,17,04,16,7.70
2016,04,17,04,17,7.70
2016,04,17,04,18,7.70
2016,04,17,04,19,7.70
2016,04,17,04,20,7.70
2016,04,17,04,21,7.70
2016,04,17,04,22,7.70
2016,04,17,04,23,7.70
2016,04,17,04,24,7.70
2016,04,17,04,25,7.60
2016,04,17,04,26,7.60
2016,04,17,04,27,7.60
2016,04,17,04,28,7.60
2016,04,17,04,29,7.60
2016,04,17,04,30,7.60
2016,04,17,04,31,7.60
2016,04,17,04,32,7.60
2016,04,17,04,33,7.60
2016,04,17,04,34,7.70
2016,04,17,04,35,7.70
2016,04,17,04,36,7.70
2016,04,17,04,37,7.70
2016,04,17,04,38,7.70
2016,04,17,04,39,7.70
2016,04,17,04,40,7.70
2016,04,17,04,41,7.70
2016,04,17,04,42,7.70
2016,04,17,04,43,7.70
2016,04,17,04,44,7.70
2016,04,17,04,45,7.80
2016,04,17,04,46,7.70
2016,04,17,04,47,7.70
2016,04,17,04,48,7.70
2016,04,17,04,49,7.70
2016,04,17,04,50,7.60
2016,04,17,04,51,7.60
2016,04,17,04,52,7.70
2016,04,17,04,53,7.70
2016,04,17,04,54,7.70
2016,04,17,04,55,7.70
2016,04,17,04,56,7.70
2016,04,17,04,57,7.70
2016,04,17,04,58,7.70
2016,04,17,04,59,7.70
2016,04,17,05,00,7.70
2016,04,17,05,01,7.70
2016,04,17,05,02,7.70
2016,04,17,05,03,7.70
2016,04,17,05,04,7.70
2016,04,17,05,05,7.60
2016,04,17,05,06,7.60
2016,04,17,05,07,7.50
2016,04,17,05,08,7.50
2016,04,17,05,09,7.40
2016,04,17,05,10,7.40
2016,04,17,05,11,7.40
2016,04,17,05,12,7.30
2016,04,17,05,13,7.30
2016,04,17,05,14,7.30
2016,04,17,05,15,7.30
2016,04,17,05,16,7.30
2016,04,17,05,17,7.20
2016,04,17,05,18,7.20
2016,04,17,05,19,7.20
2016,04,17,05,20,7.20
2016,04,17,05,21,7.20
2016,04,17,05,22,7.20
2016,04,17,05,23,7.20
2016,04,17,05,24,7.10
2016,04,17,05,25,7.10
2016,04,17,05,26,7.10
2016,04,17,05,27,7.00
2016,04,17,05,28,7.00
2016,04,17,05,29,7.00
2016,04,17,05,30,7.00
2016,04,17,05,31,7.00
2016,04,17,05,32,7.00
2016,04,17,05,33,7.00
2016,04,17,05,34,7.00
2016,04,17,05,35,7.00
2016,04,17,05,36,7.00
2016,04,17,05,37,7.00
2016,04,17,05,38,7.00
2016,04,17,05,39,7.00
2016,04,17,05,40,7.00
2016,04,17,05,41,7.00
2016,04,17,05,42,7.00
2016,04,17,05,43,7.00
2016,04,17,05,44,6.90
2016,04,17,05,45,6.90
2016,04,17,05,46,7.00
2016,04,17,05,47,7.00
2016,04,17,05,48,7.00
2016,04,17,05,49,7.00
2016,04,17,05,50,6.90
2016,04,17,05,51,6.90
2016,04,17,05,52,6.90
2016,04,17,05,53,6.90
2016,04,17,05,54,6.90
2016,04,17,05,55,7.00
2016,04,17,05,56,7.00
2016,04,17,05,57,7.00
2016,04,17,05,58,7.00
2016,04,17,05,59,7.00
2016,04,17,06,00,7.00
2016,04,17,06,01,7.00
2016,04,17,06,02,7.00
2016,04,17,06,03,6.90
2016,04,17,06,04,6.90
2016,04,17,06,05,6.90
2016,04,17,06,06,6.80
2016,04,17,06,07,6.80
2016,04,17,06,08,6.90
2016,04,17,06,09,6.90
2016,04,17,06,10,7.00
2016,04,17,06,11,7.00
2016,04,17,06,12,7.10
2016,04,17,06,13,7.10
2016,04,17,06,14,7.10
2016,04,17,06,15,7.10
2016,04,17,06,16,7.10
2016,04,17,06,17,7.10
2016,04,17,06,18,7.10
2016,04,17,06,19,7.20
2016,04,17,06,20,7.20
2016,04,17,06,21,7.20
2016,04,17,06,22,7.20
2016,04,17,06,23,7.20
2016,04,17,06,24,7.20
2016,04,17,06,25,7.20
2016,04,17,06,26,7.20
2016,04,17,06,27,7.20
2016,04,17,06,28,7.20
2016,04,17,06,29,7.20
2016,04,17,06,30,7.20
2016,04,17,06,31,7.20
2016,04,17,06,32,7.20
2016,04,17,06,33,7.20
2016,04,17,06,34,7.20
2016,04,17,06,35,7.20
2016,04,17,06,36,7.30
2016,04,17,06,37,7.30
2016,04,17,06,38,7.30
2016,04,17,06,39,7.30
2016,04,17,06,40,7.40
2016,04,17,06,41,7.40
2016,04,17,06,42,7.40
2016,04,17,06,43,7.40
2016,04,17,06,44,7.40
2016,04,17,06,45,7.40
2016,04,17,06,46,7.40
2016,04,17,06,47,7.40
2016,04,17,06,48,7.40
2016,04,17,06,49,7.50
2016,04,17,06,50,7.50
2016,04,17,06,51,7.50
2016,04,17,06,52,7.50
2016,04,17,06,53,7.50
2016,04,17,06,54,7.50
2016,04,17,06,55,8.60
2016,04,17,06,56,7.50
2016,04,17,06,57,7.60
2016,04,17,06,58,7.60
2016,04,17,06,59,7.60
2016,04,17,07,00,7.70
2016,04,17,07,01,7.70
2016,04,17,07,02,7.70
2016,04,17,07,03,7.70
2016,04,17,07,04,7.70
2016,04,17,07,05,7.70
2016,04,17,07,06,7.80
2016,04,17,07,07,7.80
2016,04,17,07,08,7.80
2016,04,17,07,09,7.80
2016,04,17,07,10,7.80
2016,04,17,07,11,7.80
2016,04,17,07,12,7.90
2016,04,17,07,13,7.90
2016,04,17,07,14,8.00
2016,04,17,07,15,8.00
2016,04,17,07,16,8.10
2016,04,17,07,17,8.10
2016,04,17,07,18,8.10
2016,04,17,07,19,8.20
2016,04,17,07,20,8.20
2016,04,17,07,21,8.20
2016,04,17,07,22,8.20
2016,04,17,07,23,8.30
2016,04,17,07,24,8.30
2016,04,17,07,25,8.30
2016,04,17,07,26,8.30
2016,04,17,07,27,8.30
2016,04,17,07,28,8.30
2016,04,17,07,29,8.30
2016,04,17,07,30,8.30
2016,04,17,07,31,8.30
2016,04,17,07,32,8.40
2016,04,17,07,33,8.40
2016,04,17,07,34,8.50
2016,04,17,07,35,8.60
2016,04,17,07,36,8.60
2016,04,17,07,37,8.60
2016,04,17,07,38,8.70
2016,04,17,07,39,8.70
2016,04,17,07,40,8.80
2016,04,17,07,41,8.80
2016,04,17,07,42,8.90
2016,04,17,07,43,9.00
2016,04,17,07,44,9.00
2016,04,17,07,45,9.10
2016,04,17,07,46,9.20
2016,04,17,07,47,9.20
2016,04,17,07,48,9.30
2016,04,17,07,49,9.30
2016,04,17,07,50,9.40
2016,04,17,07,51,9.40
2016,04,17,07,52,9.50
2016,04,17,07,53,9.50
2016,04,17,07,54,9.50
2016,04,17,07,55,9.50
2016,04,17,07,56,9.60
2016,04,17,07,57,9.60
2016,04,17,07,58,9.70
2016,04,17,07,59,9.70
2016,04,17,08,00,9.70
2016,04,17,08,01,9.60
2016,04,17,08,02,9.50
2016,04,17,08,03,9.50
2016,04,17,08,04,9.50
2016,04,17,08,05,9.50
2016,04,17,08,06,9.50
2016,04,17,08,07,9.60
2016,04,17,08,08,9.60
2016,04,17,08,09,9.70
2016,04,17,08,10,9.70
2016,04,17,08,11,9.70
2016,04,17,08,12,9.70
2016,04,17,08,13,9.70
2016,04,17,08,14,9.80
2016,04,17,08,15,9.80
2016,04,17,08,16,9.80
2016,04,17,08,17,9.80
2016,04,17,08,18,9.90
2016,04,17,08,19,9.90
2016,04,17,08,20,9.90
2016,04,17,08,21,10.00
2016,04,17,08,22,10.00
2016,04,17,08,23,10.00
2016,04,17,08,24,10.10
2016,04,17,08,25,10.10
2016,04,17,08,26,10.10
2016,04,17,08,27,10.10
2016,04,17,08,28,10.20
2016,04,17,08,29,10.20
2016,04,17,08,30,10.20
2016,04,17,08,31,10.30
2016,04,17,08,32,10.30
2016,04,17,08,33,10.30
2016,04,17,08,34,10.40
2016,04,17,08,35,10.50
2016,04,17,08,36,10.50
2016,04,17,08,37,10.60
2016,04,17,08,38,10.60
2016,04,17,08,39,10.70
2016,04,17,08,40,10.70
2016,04,17,08,41,10.70
2016,04,17,08,42,10.70
2016,04,17,08,43,10.70
2016,04,17,08,44,10.70
2016,04,17,08,45,10.70
2016,04,17,08,46,10.70
2016,04,17,08,47,10.70
2016,04,17,08,48,10.70
2016,04,17,08,49,10.70
2016,04,17,08,50,10.70
2016,04,17,08,51,10.80
2016,04,17,08,52,10.80
2016,04,17,08,53,10.90
2016,04,17,08,54,10.90
2016,04,17,08,55,11.00
2016,04,17,08,56,11.00
2016,04,17,08,57,11.10
2016,04,17,08,58,11.10
2016,04,17,08,59,11.10
2016,04,17,09,00,11.20
2016,04,17,09,01,11.20
2016,04,17,09,02,11.30
2016,04,17,09,03,11.30
2016,04,17,09,04,11.40
2016,04,17,09,05,11.50
2016,04,17,09,06,11.50
2016,04,17,09,07,11.60
2016,04,17,09,08,11.70
2016,04,17,09,09,11.80
2016,04,17,09,10,11.90
2016,04,17,09,11,12.00
2016,04,17,09,12,12.10
2016,04,17,09,13,12.20
2016,04,17,09,14,12.30
2016,04,17,09,15,12.40
2016,04,17,09,16,12.50
2016,04,17,09,17,12.60
2016,04,17,09,18,12.70
2016,04,17,09,19,12.80
2016,04,17,09,20,12.80
2016,04,17,09,21,12.90
2016,04,17,09,22,13.00
2016,04,17,09,23,13.00
2016,04,17,09,24,13.10
2016,04,17,09,25,13.20
2016,04,17,09,26,13.20
2016,04,17,09,27,13.30
2016,04,17,09,28,13.40
2016,04,17,09,29,13.50
2016,04,17,09,30,13.50
2016,04,17,09,31,13.60
2016,04,17,09,32,13.70
2016,04,17,09,33,13.80
2016,04,17,09,34,13.80
2016,04,17,09,35,13.90
2016,04,17,09,36,14.00
2016,04,17,09,37,14.10
2016,04,17,09,38,14.20
2016,04,17,09,39,14.20
2016,04,17,09,40,14.20
2016,04,17,09,41,14.30
2016,04,17,09,42,14.30
2016,04,17,09,43,14.40
2016,04,17,09,44,14.40
2016,04,17,09,45,14.50
2016,04,17,09,46,14.50
2016,04,17,09,47,14.60
2016,04,17,09,48,14.70
2016,04,17,09,49,14.70
2016,04,17,09,50,14.80
2016,04,17,09,51,14.80
2016,04,17,09,52,14.90
2016,04,17,09,53,15.00
2016,04,17,09,54,15.00
2016,04,17,09,55,15.10
2016,04,17,09,56,15.20
2016,04,17,09,57,15.20
2016,04,17,09,58,15.30
2016,04,17,09,59,15.30
2016,04,17,10,00,15.40
2016,04,17,10,01,15.40
2016,04,17,10,02,15.40
2016,04,17,10,03,15.50
2016,04,17,10,04,15.50
2016,04,17,10,05,15.50
2016,04,17,10,06,15.50
2016,04,17,10,07,15.60
2016,04,17,10,08,15.50
2016,04,17,10,09,15.50
2016,04,17,10,10,15.60
2016,04,17,10,11,15.60
2016,04,17,10,12,15.60
2016,04,17,10,13,15.70
2016,04,17,10,14,15.70
2016,04,17,10,15,15.70
2016,04,17,10,16,15.80
2016,04,17,10,17,15.80
2016,04,17,10,18,15.80
2016,04,17,10,19,15.80
2016,04,17,10,20,15.80
2016,04,17,10,21,15.80
2016,04,17,10,22,15.80
2016,04,17,10,23,15.90
2016,04,17,10,24,15.90
2016,04,17,10,25,15.90
2016,04,17,10,26,16.00
2016,04,17,10,27,16.00
2016,04,17,10,28,16.00
2016,04,17,10,29,15.90
2016,04,17,10,30,15.90
2016,04,17,10,31,15.90
2016,04,17,10,32,15.90
2016,04,17,10,33,15.90
2016,04,17,10,34,16.00
2016,04,17,10,35,16.00
2016,04,17,10,36,16.00
2016,04,17,10,37,16.10
2016,04,17,10,38,16.10
2016,04,17,10,39,16.10
2016,04,17,10,40,16.10
2016,04,17,10,41,16.10
2016,04,17,10,42,16.10
2016,04,17,10,43,16.10
2016,04,17,10,44,16.10
2016,04,17,10,45,16.20
2016,04,17,10,46,16.20
2016,04,17,10,47,16.20
2016,04,17,10,48,16.20
2016,04,17,10,49,16.20
2016,04,17,10,50,16.20
2016,04,17,10,51,16.20
2016,04,17,10,52,16.20
2016,04,17,10,53,16.20
2016,04,17,10,54,16.30
2016,04,17,10,55,16.30
2016,04,17,10,56,16.30
2016,04,17,10,57,16.40
2016,04,17,10,58,16.50
2016,04,17,10,59,16.50
2016,04,17,11,00,16.50
2016,04,17,11,01,16.60
2016,04,17,11,02,16.60
2016,04,17,11,03,16.60
2016,04,17,11,04,16.60
2016,04,17,11,05,16.70
2016,04,17,11,06,16.80
2016,04,17,11,07,16.80
2016,04,17,11,08,16.90
2016,04,17,11,09,17.00
2016,04,17,11,10,17.00
2016,04,17,11,11,17.10
2016,04,17,11,12,17.10
2016,04,17,11,13,17.10
2016,04,17,11,14,17.20
2016,04,17,11,15,17.20
2016,04,17,11,16,17.20
2016,04,17,11,17,17.30
2016,04,17,11,18,17.40
2016,04,17,11,19,17.50
2016,04,17,11,20,17.50
2016,04,17,11,21,17.60
2016,04,17,11,22,17.70
2016,04,17,11,23,17.80
2016,04,17,11,24,17.80
2016,04,17,11,25,17.80
2016,04,17,11,26,17.80
2016,04,17,11,27,17.90
2016,04,17,11,28,18.00
2016,04,17,11,29,18.00
2016,04,17,11,30,18.10
2016,04,17,11,31,18.20
2016,04,17,11,32,18.20
2016,04,17,11,33,18.30
2016,04,17,11,34,18.20
2016,04,17,11,35,18.20
2016,04,17,11,36,18.20
2016,04,17,11,37,18.30
2016,04,17,11,38,18.30
2016,04,17,11,39,18.30
2016,04,17,11,40,18.40
2016,04,17,11,41,18.40
2016,04,17,11,42,18.40
2016,04,17,11,43,18.50
2016,04,17,11,44,18.50
2016,04,17,11,45,18.60
2016,04,17,11,46,18.70
2016,04,17,11,47,18.70
2016,04,17,11,48,18.70
2016,04,17,11,49,18.80
2016,04,17,11,50,18.80
2016,04,17,11,51,18.80
2016,04,17,11,52,18.90
2016,04,17,11,53,18.90
2016,04,17,11,54,18.90
2016,04,17,11,55,19.00
2016,04,17,11,56,19.10
2016,04,17,11,57,19.10
2016,04,17,11,58,19.20
2016,04,17,11,59,19.20
2016,04,17,12,00,19.30
2016,04,17,12,01,19.30
2016,04,17,12,02,19.30
2016,04,17,12,03,19.40
2016,04,17,12,04,19.40
2016,04,17,12,05,19.40
2016,04,17,12,06,19.50
2016,04,17,12,07,19.60
2016,04,17,12,08,19.60
2016,04,17,12,09,19.60
2016,04,17,12,10,19.70
2016,04,17,12,11,19.80
2016,04,17,12,12,19.90
2016,04,17,12,13,19.90
2016,04,17,12,14,20.00
2016,04,17,12,15,20.10
2016,04,17,12,16,20.20
2016,04,17,12,17,20.20
2016,04,17,12,18,20.30
2016,04,17,12,19,20.30
2016,04,17,12,20,20.30
2016,04,17,12,21,20.30
2016,04,17,12,22,20.40
2016,04,17,12,23,20.50
2016,04,17,12,24,20.60
2016,04,17,12,25,20.60
2016,04,17,12,26,20.60
2016,04,17,12,27,20.60
2016,04,17,12,28,20.60
2016,04,17,12,29,20.60
2016,04,17,12,30,20.60
2016,04,17,12,31,20.50
2016,04,17,12,32,20.50
2016,04,17,12,33,20.50
2016,04,17,12,34,20.50
2016,04,17,12,35,20.60
2016,04,17,12,36,20.60
2016,04,17,12,37,20.60
2016,04,17,12,38,20.70
2016,04,17,12,39,20.70
2016,04,17,12,40,20.80
2016,04,17,12,41,20.90
2016,04,17,12,42,21.00
2016,04,17,12,43,21.00
2016,04,17,12,44,21.10
2016,04,17,12,45,21.20
2016,04,17,12,46,21.20
2016,04,17,12,47,21.30
2016,04,17,12,48,21.40
2016,04,17,12,49,21.50
2016,04,17,12,50,21.60
2016,04,17,12,51,21.70
2016,04,17,12,52,21.70
2016,04,17,12,53,21.80
2016,04,17,12,54,21.80
2016,04,17,12,55,21.80
2016,04,17,12,56,21.80
2016,04,17,12,57,21.80
2016,04,17,12,58,21.80
2016,04,17,12,59,21.80
2016,04,17,13,00,21.90
2016,04,17,13,01,21.90
2016,04,17,13,02,21.90
2016,04,17,13,03,21.90
2016,04,17,13,04,22.00
2016,04,17,13,05,22.10
2016,04,17,13,06,22.10
2016,04,17,13,07,22.20
2016,04,17,13,08,22.20
2016,04,17,13,09,22.20
2016,04,17,13,10,22.30
2016,04,17,13,11,22.40
2016,04,17,13,12,22.50
2016,04,17,13,13,22.50
2016,04,17,13,14,22.60
2016,04,17,13,15,22.60
2016,04,17,13,16,22.70
2016,04,17,13,17,22.70
2016,04,17,13,18,22.80
2016,04,17,13,19,23.00
2016,04,17,13,20,23.10
2016,04,17,13,21,23.10
2016,04,17,13,22,23.20
2016,04,17,13,23,23.10
2016,04,17,13,24,23.10
2016,04,17,13,25,23.10
2016,04,17,13,26,23.10
2016,04,17,13,27,23.20
2016,04,17,13,28,23.30
2016,04,17,13,29,23.40
2016,04,17,13,30,23.50
2016,04,17,13,31,23.50
2016,04,17,13,32,23.60
2016,04,17,13,33,23.60
2016,04,17,13,34,23.60
2016,04,17,13,35,23.70
2016,04,17,13,36,23.70
2016,04,17,13,37,23.70
2016,04,17,13,38,23.70
2016,04,17,13,39,23.70
2016,04,17,13,40,23.60
2016,04,17,13,41,23.60
2016,04,17,13,42,23.60
2016,04,17,13,43,23.60
2016,04,17,13,44,23.50
2016,04,17,13,45,23.50
2016,04,17,13,46,23.40
2016,04,17,13,47,23.30
2016,04,17,13,48,23.30
2016,04,17,13,49,23.40
2016,04,17,13,50,23.40
2016,04,17,13,51,23.50
2016,04,17,13,52,23.50
2016,04,17,13,53,23.60
2016,04,17,13,54,23.60
2016,04,17,13,55,23.60
2016,04,17,13,56,23.60
2016,04,17,13,57,23.60
2016,04,17,13,58,23.60
2016,04,17,13,59,23.60
2016,04,17,14,00,23.40
2016,04,17,14,01,23.30
2016,04,17,14,02,23.30
2016,04,17,14,03,23.30
2016,04,17,14,04,23.30
2016,04,17,14,05,23.40
2016,04,17,14,06,23.40
2016,04,17,14,07,23.50
2016,04,17,14,08,23.50
2016,04,17,14,09,23.60
2016,04,17,14,10,23.60
2016,04,17,14,11,23.60
2016,04,17,14,12,23.60
2016,04,17,14,13,23.70
2016,04,17,14,14,23.80
2016,04,17,14,15,23.90
2016,04,17,14,16,23.90
2016,04,17,14,17,24.00
2016,04,17,14,18,23.90
2016,04,17,14,19,23.90
2016,04,17,14,20,23.90
2016,04,17,14,21,23.70
2016,04,17,14,22,23.60
2016,04,17,14,23,23.60
2016,04,17,14,24,23.60
2016,04,17,14,25,23.60
2016,04,17,14,26,23.60
2016,04,17,14,27,23.70
2016,04,17,14,28,23.80
2016,04,17,14,29,23.90
2016,04,17,14,30,23.90
2016,04,17,14,31,24.10
2016,04,17,14,32,24.10
2016,04,17,14,33,24.10
2016,04,17,14,34,24.10
2016,04,17,14,35,24.10
2016,04,17,14,36,24.10
2016,04,17,14,37,24.10
2016,04,17,14,38,24.20
2016,04,17,14,39,24.20
2016,04,17,14,40,24.20
2016,04,17,14,41,24.20
2016,04,17,14,42,24.30
2016,04,17,14,43,24.30
2016,04,17,14,44,24.30
2016,04,17,14,45,24.40
2016,04,17,14,46,24.40
2016,04,17,14,47,24.40
2016,04,17,14,48,24.40
2016,04,17,14,49,24.40
2016,04,17,14,50,24.40
2016,04,17,14,51,24.30
2016,04,17,14,52,24.30
2016,04,17,14,53,24.30
2016,04,17,14,54,24.30
2016,04,17,14,55,24.40
2016,04,17,14,56,24.40
2016,04,17,14,57,24.40
2016,04,17,14,58,24.40
2016,04,17,14,59,24.40
2016,04,17,15,00,24.40
2016,04,17,15,01,24.40
2016,04,17,15,02,24.40
2016,04,17,15,03,24.40
2016,04,17,15,04,24.40
2016,04,17,15,05,24.30
2016,04,17,15,06,24.30
2016,04,17,15,07,24.30
2016,04,17,15,08,24.30
2016,04,17,15,09,24.30
2016,04,17,15,10,24.30
2016,04,17,15,11,24.40
2016,04,17,15,12,24.40
2016,04,17,15,13,24.40
2016,04,17,15,14,24.50
2016,04,17,15,15,24.50
2016,04,17,15,16,24.60
2016,04,17,15,17,24.60
2016,04,17,15,18,24.70
2016,04,17,15,19,24.70
2016,04,17,15,20,24.70
2016,04,17,15,21,24.80
2016,04,17,15,22,24.80
2016,04,17,15,23,24.90
2016,04,17,15,24,25.00
2016,04,17,15,25,25.10
2016,04,17,15,26,25.10
2016,04,17,15,27,25.20
2016,04,17,15,28,25.30
2016,04,17,15,29,25.30
2016,04,17,15,30,25.30
2016,04,17,15,31,25.20
2016,04,17,15,32,25.20
2016,04,17,15,33,25.20
2016,04,17,15,34,25.20
2016,04,17,15,35,25.20
2016,04,17,15,36,25.20
2016,04,17,15,37,25.10
2016,04,17,15,38,25.00
2016,04,17,15,39,25.00
2016,04,17,15,40,25.00
2016,04,17,15,41,25.00
2016,04,17,15,42,25.00
2016,04,17,15,43,25.00
2016,04,17,15,44,24.90
2016,04,17,15,45,24.90
2016,04,17,15,46,24.90
2016,04,17,15,47,24.90
2016,04,17,15,48,24.90
2016,04,17,15,49,24.90
2016,04,17,15,50,24.90
2016,04,17,15,51,24.90
2016,04,17,15,52,25.00
2016,04,17,15,53,25.00
2016,04,17,15,54,25.10
2016,04,17,15,55,25.10
2016,04,17,15,56,25.10
2016,04,17,15,57,25.00
2016,04,17,15,58,25.00
2016,04,17,15,59,24.90
2016,04,17,16,00,24.90
2016,04,17,16,01,24.90
2016,04,17,16,02,24.90
2016,04,17,16,03,25.00
2016,04,17,16,04,25.00
2016,04,17,16,05,25.00
2016,04,17,16,06,25.00
2016,04,17,16,07,24.90
2016,04,17,16,08,24.90
2016,04,17,16,09,24.90
2016,04,17,16,10,24.90
2016,04,17,16,11,24.80
2016,04,17,16,12,24.80
2016,04,17,16,13,24.70
2016,04,17,16,14,24.70
2016,04,17,16,15,24.80
2016,04,17,16,16,24.80
2016,04,17,16,17,24.90
2016,04,17,16,18,24.90
2016,04,17,16,19,24.90
2016,04,17,16,20,24.90
2016,04,17,16,21,24.90
2016,04,17,16,22,24.90
2016,04,17,16,23,24.90
2016,04,17,16,24,24.90
2016,04,17,16,25,24.90
2016,04,17,16,26,25.00
2016,04,17,16,27,25.00
2016,04,17,16,28,25.10
2016,04,17,16,29,25.10
2016,04,17,16,30,25.20
2016,04,17,16,31,25.20
2016,04,17,16,32,25.20
2016,04,17,16,33,25.10
2016,04,17,16,34,25.10
2016,04,17,16,35,25.10
2016,04,17,16,36,25.00
2016,04,17,16,37,25.00
2016,04,17,16,38,25.00
2016,04,17,16,39,25.00
2016,04,17,16,40,25.00
2016,04,17,16,41,25.00
2016,04,17,16,42,25.00
2016,04,17,16,43,25.10
2016,04,17,16,44,25.10
2016,04,17,16,45,25.00
2016,04,17,16,46,25.00
2016,04,17,16,47,25.00
2016,04,17,16,48,25.00
2016,04,17,16,49,25.00
2016,04,17,16,50,25.00
2016,04,17,16,51,25.10
2016,04,17,16,52,25.10
2016,04,17,16,53,25.00
2016,04,17,16,54,25.00
2016,04,17,16,55,25.00
2016,04,17,16,56,24.90
2016,04,17,16,57,24.90
2016,04,17,16,58,24.90
2016,04,17,16,59,24.80
2016,04,17,17,00,24.80
2016,04,17,17,01,24.80
2016,04,17,17,02,24.80
2016,04,17,17,03,24.80
2016,04,17,17,04,24.80
2016,04,17,17,05,24.80
2016,04,17,17,06,24.80
2016,04,17,17,07,24.80
2016,04,17,17,08,24.80
2016,04,17,17,09,24.80
2016,04,17,17,10,24.80
2016,04,17,17,11,24.80
2016,04,17,17,12,24.80
2016,04,17,17,13,24.80
2016,04,17,17,14,24.90
2016,04,17,17,15,24.90
2016,04,17,17,16,24.90
2016,04,17,17,17,24.90
2016,04,17,17,18,24.90
2016,04,17,17,19,24.90
2016,04,17,17,20,24.90
2016,04,17,17,21,24.90
2016,04,17,17,22,24.90
2016,04,17,17,23,24.90
2016,04,17,17,24,24.90
2016,04,17,17,25,24.90
2016,04,17,17,26,24.80
2016,04,17,17,27,24.80
2016,04,17,17,28,24.70
2016,04,17,17,29,24.70
2016,04,17,17,30,24.70
2016,04,17,17,31,24.70
2016,04,17,17,32,24.70
2016,04,17,17,33,24.70
2016,04,17,17,34,24.60
2016,04,17,17,35,24.60
2016,04,17,17,36,24.60
2016,04,17,17,37,24.60
2016,04,17,17,38,24.60
2016,04,17,17,39,24.60
2016,04,17,17,40,24.60
2016,04,17,17,41,24.70